Location: Antichan
(42.9728°N, 0.6667°E)
Time: 17:36:25
(UTC+00:00)

SPOT 1/Viking Rocket - Pass Details

Date: 15 August 2020
Orbit: 776 x 795 km, 98.5° (Epoch: 19 September)

Event Time Altitude Azimuth Distance (km) Brightness Sun altitude
Exits shadow 20:23:31 21° 112° (ESE) 1,720 4.7 -14.5°
Maximum altitude 20:26:03 32° 66° (ENE) 1,345 4.5 -14.9°
Drops below altitude 10° 20:30:38 10° 5° (N) 2,373 6.5 -15.6°
Sets 20:33:10 0° 356° (N) 3,306 7.4 -16.0°
